TimeCDT,TemperatureF,Dew PointF,Humidity,Sea Level PressureIn,VisibilityMPH,Wind Direction,Wind SpeedMPH,Gust SpeedMPH,PrecipitationIn,Events,Conditions,WindDirDegrees,DateUTC
12:12 AM,24.8,23.0,93,30.00,5.0,Calm,Calm,-,N/A,,Clear,0,2013-03-15 05:12:00
12:32 AM,24.8,23.0,93,30.01,5.0,NNW,4.6,-,N/A,,Scattered Clouds,330,2013-03-15 05:32:00
12:53 AM,24.8,24.8,100,30.00,5.0,North,4.6,-,N/A,,Scattered Clouds,360,2013-03-15 05:53:00
1:12 AM,26.6,24.8,93,29.99,7.0,North,5.8,-,N/A,,Scattered Clouds,10,2013-03-15 06:12:00
1:33 AM,28.4,26.6,93,29.99,7.0,North,8.1,-,N/A,,Overcast,360,2013-03-15 06:33:00
1:52 AM,28.4,26.6,93,30.00,7.0,North,9.2,-,N/A,Snow,Light Snow,360,2013-03-15 06:52:00
2:12 AM,28.4,26.6,93,30.01,7.0,North,11.5,-,N/A,,Mostly Cloudy,350,2013-03-15 07:12:00
2:33 AM,28.4,26.6,93,30.02,7.0,North,12.7,-,N/A,,Mostly Cloudy,350,2013-03-15 07:33:00
2:53 AM,26.6,24.8,93,30.01,5.0,North,10.4,-,N/A,Snow,Light Snow,360,2013-03-15 07:53:00
3:12 AM,26.6,24.8,93,30.01,5.0,North,11.5,-,N/A,Snow,Light Snow,360,2013-03-15 08:12:00
3:33 AM,26.6,24.8,93,29.98,5.0,NE,8.1,-,N/A,,Overcast,40,2013-03-15 08:33:00
3:52 AM,26.6,24.8,93,29.98,4.0,NNE,6.9,-,N/A,,Mostly Cloudy,30,2013-03-15 08:52:00
4:12 AM,26.6,26.6,100,29.97,4.0,NNE,4.6,-,N/A,,Overcast,20,2013-03-15 09:12:00
4:33 AM,26.6,26.6,100,29.96,4.0,North,4.6,-,N/A,,Overcast,360,2013-03-15 09:33:00
4:52 AM,26.6,26.6,100,29.96,4.0,WNW,5.8,-,N/A,,Overcast,300,2013-03-15 09:52:00
5:13 AM,26.6,24.8,93,29.96,4.0,NNW,5.8,-,N/A,,Overcast,340,2013-03-15 10:13:00
5:33 AM,26.6,26.6,100,29.96,4.0,NNW,6.9,-,N/A,,Overcast,340,2013-03-15 10:33:00
5:52 AM,26.6,26.6,100,29.95,4.0,North,6.9,-,0.01,,Overcast,360,2013-03-15 10:52:00
6:13 AM,28.4,26.6,93,29.94,4.0,NE,4.6,-,N/A,,Overcast,40,2013-03-15 11:13:00
6:33 AM,28.4,26.6,93,29.93,3.0,NE,8.1,-,N/A,,Overcast,50,2013-03-15 11:33:00
6:52 AM,30.2,28.4,93,29.95,3.0,North,3.5,-,N/A,,Overcast,10,2013-03-15 11:52:00
7:13 AM,30.2,28.4,93,29.94,2.5,NE,4.6,-,N/A,,Overcast,40,2013-03-15 12:13:00
7:32 AM,30.2,30.2,100,29.93,4.0,East,4.6,-,N/A,,Overcast,80,2013-03-15 12:32:00
7:52 AM,30.2,30.2,100,29.92,5.0,East,4.6,-,N/A,,Overcast,80,2013-03-15 12:52:00
8:13 AM,30.2,28.4,93,29.93,5.0,ENE,5.8,-,N/A,,Overcast,70,2013-03-15 13:13:00
8:32 AM,32.0,30.2,93,29.92,5.0,ENE,5.8,-,N/A,,Overcast,70,2013-03-15 13:32:00
8:53 AM,32.0,30.2,93,29.92,5.0,East,8.1,-,N/A,,Overcast,80,2013-03-15 13:53:00
9:13 AM,32.0,28.4,87,29.92,7.0,East,9.2,-,N/A,,Overcast,90,2013-03-15 14:13:00
9:32 AM,32.0,28.4,87,29.93,10.0,East,8.1,-,N/A,,Overcast,90,2013-03-15 14:32:00
9:53 AM,32.0,28.4,87,29.94,7.0,East,9.2,-,N/A,,Overcast,90,2013-03-15 14:53:00
10:13 AM,32.0,28.4,87,29.95,7.0,ENE,5.8,-,N/A,,Overcast,70,2013-03-15 15:13:00
10:32 AM,32.0,28.4,87,29.94,7.0,East,8.1,-,N/A,,Overcast,80,2013-03-15 15:32:00
10:53 AM,32.0,28.4,87,29.93,7.0,East,8.1,-,N/A,,Overcast,90,2013-03-15 15:53:00
11:13 AM,33.8,28.4,81,29.91,7.0,ESE,10.4,-,N/A,,Overcast,110,2013-03-15 16:13:00
11:32 AM,33.8,28.4,81,29.91,7.0,East,9.2,-,N/A,,Overcast,100,2013-03-15 16:32:00
11:53 AM,33.8,28.4,81,29.91,7.0,East,9.2,-,N/A,,Overcast,100,2013-03-15 16:53:00
12:12 PM,32.0,28.4,87,29.94,10.0,ENE,5.8,-,N/A,,Overcast,60,2013-03-15 17:12:00
12:33 PM,33.8,28.4,81,29.92,7.0,East,5.8,-,N/A,,Overcast,90,2013-03-15 17:33:00
12:53 PM,33.8,28.4,81,29.92,10.0,East,8.1,-,N/A,,Overcast,90,2013-03-15 17:53:00
1:12 PM,33.8,28.4,81,29.91,10.0,East,9.2,-,N/A,,Overcast,100,2013-03-15 18:12:00
1:33 PM,33.8,28.4,81,29.90,10.0,East,11.5,-,N/A,,Overcast,100,2013-03-15 18:33:00
1:52 PM,33.8,28.4,81,29.90,10.0,ESE,9.2,-,N/A,,Overcast,110,2013-03-15 18:52:00
2:13 PM,33.8,28.4,81,29.88,10.0,ESE,9.2,-,N/A,,Overcast,110,2013-03-15 19:13:00
2:32 PM,33.8,28.4,81,29.88,7.0,ESE,8.1,-,N/A,Snow,Light Snow,120,2013-03-15 19:32:00
2:52 PM,33.8,28.4,81,29.88,10.0,ESE,8.1,-,N/A,,Overcast,110,2013-03-15 19:52:00
3:13 PM,33.8,28.4,81,29.86,5.0,ESE,9.2,-,N/A,Snow,Light Snow,110,2013-03-15 20:13:00
3:32 PM,32.0,28.4,87,29.84,4.0,ESE,8.1,-,N/A,Snow,Light Snow,110,2013-03-15 20:32:00
3:52 PM,32.0,28.4,87,29.84,5.0,ESE,9.2,-,N/A,,Overcast,110,2013-03-15 20:52:00
4:13 PM,32.0,28.4,87,29.84,5.0,ESE,4.6,-,0.01,,Overcast,120,2013-03-15 21:13:00
4:32 PM,32.0,28.4,87,29.85,10.0,East,6.9,-,0.01,,Overcast,100,2013-03-15 21:32:00
4:53 PM,32.0,28.4,87,29.83,10.0,East,8.1,-,0.01,,Overcast,100,2013-03-15 21:53:00
5:12 PM,32.0,28.4,87,29.82,7.0,East,9.2,-,N/A,,Overcast,90,2013-03-15 22:12:00
5:32 PM,32.0,28.4,87,29.84,7.0,ENE,6.9,-,N/A,,Overcast,70,2013-03-15 22:32:00
5:53 PM,30.2,28.4,93,29.86,10.0,NE,8.1,-,N/A,Snow,Light Snow,50,2013-03-15 22:53:00
6:13 PM,30.2,28.4,93,29.86,5.0,NE,8.1,-,N/A,Snow,Light Snow,50,2013-03-15 23:13:00
6:32 PM,30.2,28.4,93,29.86,2.5,ENE,5.8,-,N/A,Snow,Light Snow,60,2013-03-15 23:32:00
6:53 PM,30.2,28.4,93,29.86,1.8,ENE,5.8,-,0.01,Snow,Light Snow,70,2013-03-15 23:53:00
7:12 PM,30.2,28.4,93,29.85,3.0,East,5.8,-,N/A,Snow,Light Snow,80,2013-03-16 00:12:00
7:32 PM,30.2,28.4,93,29.88,7.0,ENE,6.9,-,N/A,,Overcast,60,2013-03-16 00:32:00
7:53 PM,30.2,28.4,93,29.86,10.0,East,5.8,-,N/A,,Overcast,80,2013-03-16 00:53:00
8:12 PM,30.2,26.6,86,29.88,10.0,East,8.1,-,N/A,,Overcast,90,2013-03-16 01:12:00
8:32 PM,30.2,26.6,86,29.89,2.5,East,5.8,-,N/A,,Overcast,90,2013-03-16 01:32:00
8:53 PM,28.4,28.4,100,29.90,3.0,East,6.9,-,N/A,,Overcast,80,2013-03-16 01:53:00
9:12 PM,28.4,26.6,93,29.89,3.0,East,8.1,-,N/A,,Overcast,90,2013-03-16 02:12:00
9:53 PM,28.4,26.6,93,29.92,5.0,East,8.1,-,N/A,,Overcast,90,2013-03-16 02:53:00
10:12 PM,26.6,26.6,100,29.92,5.0,East,11.5,-,N/A,,Overcast,90,2013-03-16 03:12:00
10:33 PM,26.6,24.8,93,29.92,7.0,East,10.4,-,N/A,,Overcast,90,2013-03-16 03:33:00
10:53 PM,26.6,24.8,93,29.93,10.0,ENE,6.9,-,N/A,,Overcast,70,2013-03-16 03:53:00
11:12 PM,24.8,23.0,93,29.93,10.0,ENE,9.2,-,N/A,,Overcast,70,2013-03-16 04:12:00
11:33 PM,24.8,21.2,86,29.95,10.0,ENE,5.8,-,N/A,,Overcast,70,2013-03-16 04:33:00
11:53 PM,24.8,21.2,86,29.95,10.0,ENE,6.9,-,N/A,,Overcast,70,2013-03-16 04:53:00